Location: Black Swamp Observatory
(41.3920°N, 84.1250°W)
Time: 21:46:37
(UTC-05:00)

Transit 2A Rocket - Visible Passes

Search period start: 22 January 2022 00:00
Search period end: 01 February 2022 00:00
Orbit: 584 x 918 km, 66.7° (Epoch: 22 January)

Date Brightness Start Highest point End Pass type
(mag) Time Alt. Az. Time Alt. Az. Time Alt. Az.
22 Jan 7.6 04:16:37 15° ESE 04:16:37 15° ESE 04:17:40 10° ESE visible
22 Jan 5.6 05:56:34 37° SW 05:56:34 37° SW 06:00:24 10° S visible
22 Jan 6.4 18:42:07 10° SSE 18:46:45 24° ESE 18:49:31 18° ENE visible
22 Jan 5.7 20:23:00 10° SW 20:28:57 60° WNW 20:29:29 58° NNW visible
23 Jan 6.5 05:16:08 25° SSE 05:16:08 25° SSE 05:18:12 10° SSE visible
23 Jan 5.2 19:40:10 10° SSW 19:46:11 87° ESE 19:48:55 36° NNE visible
23 Jan 7.5 21:25:08 10° W 21:28:52 20° NW 21:28:52 20° NW visible
24 Jan 5.5 18:57:43 10° S 19:03:33 54° ESE 19:08:14 17° NE visible
24 Jan 6.9 20:41:13 10° WSW 20:46:30 30° NW 20:48:11 26° NNW visible
25 Jan 6.1 18:15:46 10° S 18:21:03 33° ESE 18:26:25 10° NE visible
25 Jan 6.3 19:57:45 10° SW 20:03:32 45° NW 20:07:23 21° N visible
25 Jan 8.0 21:45:42 10° NW 21:47:19 12° NW 21:47:19 12° NW visible
26 Jan 5.6 19:14:39 10° SW 19:20:41 71° WNW 19:26:28 12° NNE visible
26 Jan 7.6 21:00:39 10° WNW 21:04:25 17° NW 21:06:23 14° NNW visible
27 Jan 5.4 18:31:58 10° SSW 18:37:58 74° ESE 18:44:06 10° NNE visible
27 Jan 7.3 20:16:24 10° W 20:21:14 24° NW 20:25:22 13° N visible
28 Jan 6.8 19:32:39 10° WSW 19:38:10 35° NW 19:43:42 10° NNE visible
29 Jan 6.1 18:49:18 10° SW 18:55:14 53° NW 19:01:13 10° NNE visible
29 Jan 7.8 20:36:28 10° WNW 20:39:16 13° NW 20:42:03 10° N visible
30 Jan 5.5 18:06:22 10° SSW 18:12:26 83° WNW 18:18:35 10° NNE visible
30 Jan 7.6 19:51:47 10° W 19:55:59 19° NW 20:00:10 10° N visible
31 Jan 7.2 19:07:43 10° WSW 19:12:50 27° NW 19:17:57 10° N visible
